Location: Unspecified
(50.7693°N, 0.0000°E)
Time: 01:13:30
(UTC+00:00)

SR - Pass Details

Date: 02 July 2019
Orbit: 578 x 878 km, 66.7° (Epoch: 16 August)

Event Time Altitude Azimuth Distance (km) Brightness Sun altitude
Rises 03:23:07 0° 261° (W) 2,806 ? -4.1°
Reaches altitude 10° 03:25:44 10° 277° (W) 1,929 ? -3.9°
Maximum altitude 03:29:07 22° 329° (NNW) 1,355 ? -3.5°
Drops below altitude 10° 03:32:39 10° 20° (NNE) 2,027 ? -3.1°
Sets 03:35:29 0° 36° (NE) 2,991 ? -2.7°
